TimeBST,TemperatureF,Dew PointF,Humidity,Sea Level PressureIn,VisibilityMPH,Wind Direction,Wind SpeedMPH,Gust SpeedMPH,PrecipitationIn,Events,Conditions,WindDirDegrees,DateUTC
12:50 AM,52,47,78,30.05,22,SW,4.6,,,,,220,2013-09-07 23:50:00
12:50 AM,51.8,48.2,88,30.04,-9999.0,Calm,Calm,-,N/A,,Clear,0,2013-09-07 23:50:00
1:20 AM,50.0,46.4,87,30.04,6.2,Variable,3.5,-,N/A,,Unknown,0,2013-09-08 00:20:00
1:50 AM,48.2,46.4,93,30.04,6.2,SE,3.5,-,N/A,,Unknown,130,2013-09-08 00:50:00
2:20 AM,48.2,46.4,93,30.06,6.2,Calm,Calm,-,N/A,,Unknown,0,2013-09-08 01:20:00
2:50 AM,48.2,46.4,93,30.06,-9999.0,SE,3.5,-,N/A,,Clear,140,2013-09-08 01:50:00
3:20 AM,48.2,46.4,93,30.06,-9999.0,SE,4.6,-,N/A,,Clear,140,2013-09-08 02:20:00
3:50 AM,49,46,86,30.06,19,SSE,2.3,,,,Scattered Clouds,150,2013-09-08 02:50:00
3:50 AM,48.2,46.4,93,30.06,-9999.0,South,3.5,-,N/A,,Clear,190,2013-09-08 02:50:00
4:20 AM,48.2,46.4,93,30.06,-9999.0,South,3.5,-,N/A,,Clear,170,2013-09-08 03:20:00
4:50 AM,46.4,44.6,93,30.06,6.2,East,4.6,-,N/A,,Partly Cloudy,80,2013-09-08 03:50:00
5:20 AM,46.4,46.4,100,30.06,6.2,SE,4.6,-,N/A,,Partly Cloudy,140,2013-09-08 04:20:00
5:50 AM,46.4,44.6,93,30.06,6.2,South,2.3,-,N/A,,Partly Cloudy,170,2013-09-08 04:50:00
6:20 AM,48.2,46.4,93,30.06,6.2,South,4.6,-,N/A,,Partly Cloudy,190,2013-09-08 05:20:00
6:50 AM,50,47,85,30.07,19,SSW,4.6,,,,,210,2013-09-08 05:50:00
6:50 AM,48.2,46.4,93,30.06,-9999.0,Variable,3.5,-,N/A,,Clear,0,2013-09-08 05:50:00
7:20 AM,50.0,48.2,94,30.06,-9999.0,SW,5.8,-,N/A,,Clear,230,2013-09-08 06:20:00
7:50 AM,51.8,48.2,88,30.06,-9999.0,SSW,5.8,-,N/A,,Clear,210,2013-09-08 06:50:00
8:20 AM,53.6,50.0,88,30.06,-9999.0,SSW,6.9,-,N/A,,Clear,210,2013-09-08 07:20:00
8:50 AM,57.2,48.2,72,30.06,-9999.0,SSW,6.9,-,N/A,,Clear,210,2013-09-08 07:50:00
9:20 AM,59.0,46.4,63,30.06,-9999.0,SSW,6.9,-,N/A,,Clear,210,2013-09-08 08:20:00
9:50 AM,61,46,46,30.07,25,SSW,8.1,,,,,210,2013-09-08 08:50:00
9:50 AM,60.8,46.4,59,30.06,6.2,SW,6.9,-,N/A,,Partly Cloudy,220,2013-09-08 08:50:00
10:20 AM,60.8,46.4,59,30.06,6.2,WSW,10.4,-,N/A,,Partly Cloudy,240,2013-09-08 09:20:00
10:50 AM,60.8,44.6,55,30.06,6.2,WSW,9.2,-,N/A,,Scattered Clouds,240,2013-09-08 09:50:00
11:20 AM,64.4,42.8,45,30.06,6.2,SSW,12.7,-,N/A,,Scattered Clouds,210,2013-09-08 10:20:00
11:50 AM,62.6,42.8,48,30.06,6.2,SW,13.8,-,N/A,,Scattered Clouds,230,2013-09-08 10:50:00
12:20 PM,62.6,42.8,48,30.06,6.2,SW,10.4,-,N/A,Rain,Light Rain,220,2013-09-08 11:20:00
12:50 PM,53,49,81,30.08,4,South,16.1,,,Rain,Rain Showers,180,2013-09-08 11:50:00
12:50 PM,51.8,48.2,88,30.06,6.2,South,19.6,-,N/A,Rain,Rain Showers,190,2013-09-08 11:50:00
1:20 PM,53.6,50.0,88,30.06,6.2,SSW,6.9,-,N/A,Rain,Light Rain Showers,210,2013-09-08 12:20:00
1:50 PM,57.2,51.8,82,30.06,6.2,South,9.2,-,N/A,,Scattered Clouds,190,2013-09-08 12:50:00
2:20 PM,57.2,50.0,77,30.06,6.2,South,10.4,-,N/A,Rain,Light Rain Showers,180,2013-09-08 13:20:00
2:50 PM,57.2,50.0,77,30.06,6.2,SSW,10.4,-,N/A,,Partly Cloudy,210,2013-09-08 13:50:00
3:20 PM,59.0,48.2,67,30.06,6.2,SSW,10.4,-,N/A,,Partly Cloudy,210,2013-09-08 14:20:00
3:50 PM,56,46,61,30.07,28,SSW,13.8,,,Rain,Light Rain Showers,210,2013-09-08 14:50:00
3:50 PM,55.4,48.2,77,30.06,6.2,SSW,12.7,-,N/A,Rain,Light Rain,210,2013-09-08 14:50:00
4:20 PM,57.2,51.8,82,30.06,6.2,SSW,10.4,-,N/A,,Partly Cloudy,210,2013-09-08 15:20:00
4:50 PM,57.2,50.0,77,30.06,6.2,South,9.2,-,N/A,,Partly Cloudy,190,2013-09-08 15:50:00
5:20 PM,57.2,50.0,77,30.06,6.2,SSW,6.9,-,N/A,,Scattered Clouds,210,2013-09-08 16:20:00
5:50 PM,55.4,50.0,82,30.04,6.2,South,10.4,-,N/A,Rain,Light Rain Showers,180,2013-09-08 16:50:00
6:20 PM,55.4,50.0,82,30.04,6.2,South,11.5,-,N/A,,Partly Cloudy,180,2013-09-08 17:20:00
6:50 PM,55,50,76,30.05,31,South,10.4,,,Rain,Rain,180,2013-09-08 17:50:00
6:50 PM,55.4,50.0,82,30.04,6.2,South,9.2,-,N/A,,Partly Cloudy,190,2013-09-08 17:50:00
7:20 PM,55.4,50.0,82,30.04,6.2,South,9.2,-,N/A,,Partly Cloudy,180,2013-09-08 18:20:00
7:50 PM,53.6,50.0,88,30.04,6.2,South,8.1,-,N/A,,Partly Cloudy,190,2013-09-08 18:50:00
8:20 PM,53.6,51.8,94,30.06,-9999.0,SSW,8.1,-,N/A,,Clear,200,2013-09-08 19:20:00
8:50 PM,53.6,50.0,88,30.06,-9999.0,SSW,8.1,-,N/A,,Clear,210,2013-09-08 19:50:00
9:20 PM,53.6,50.0,88,30.06,-9999.0,SSW,8.1,-,N/A,,Clear,210,2013-09-08 20:20:00
9:50 PM,53,49,80,30.06,28,SSW,6.9,,,,Scattered Clouds,200,2013-09-08 20:50:00
9:50 PM,53.6,50.0,88,30.06,-9999.0,SW,8.1,-,N/A,,Clear,220,2013-09-08 20:50:00
10:20 PM,53.6,50.0,88,30.06,-9999.0,SSW,6.9,-,N/A,,Clear,210,2013-09-08 21:20:00
10:50 PM,51.8,48.2,88,30.06,-9999.0,SSW,5.8,-,N/A,,Clear,200,2013-09-08 21:50:00
11:20 PM,51.8,48.2,88,30.06,-9999.0,SW,6.9,-,N/A,,Clear,220,2013-09-08 22:20:00
11:50 PM,51.8,48.2,88,30.06,-9999.0,SW,4.6,-,N/A,,Clear,220,2013-09-08 22:50:00